Time,TemperatureF,DewpointF,PressureIn,WindDirection,WindDirectionDegrees,WindSpeedMPH,WindSpeedGustMPH,Humidity,HourlyPrecipIn,Conditions,Clouds,dailyrainin,SoftwareType,DateUTC
2013-10-22 00:22:00,30.0,29.0,-100.00,South,180,1.0,2.0,92,0.00,,,-99.99,,2013-10-22 05:22:00,
2013-10-22 01:22:00,30.0,29.0,-100.00,NE,45,1.0,1.0,95,0.00,,,-99.99,,2013-10-22 06:22:00,
2013-10-22 01:42:00,31.0,30.0,-100.00,East,95,1.0,2.0,97,0.00,,,-99.99,,2013-10-22 06:42:00,
2013-10-22 02:22:00,30.0,29.0,-100.00,NE,35,0.0,1.0,98,0.00,,,-99.99,,2013-10-22 07:22:00,
2013-10-22 02:42:00,29.0,29.0,-100.00,South,175,0.0,2.0,99,0.00,,,-99.99,,2013-10-22 07:42:00,
2013-10-22 03:22:00,29.0,29.0,-100.00,SE,145,0.0,1.0,99,0.00,,,-99.99,,2013-10-22 08:22:00,
2013-10-22 03:41:00,30.0,30.0,-100.00,NNE,25,1.0,2.0,99,0.00,,,-99.99,,2013-10-22 08:41:00,
2013-10-22 04:43:00,32.0,32.0,-100.00,SE,140,1.0,4.0,99,0.00,,,-99.99,,2013-10-22 09:43:00,
2013-10-22 05:23:00,32.0,32.0,-100.00,SE,125,2.0,3.0,99,0.00,,,-99.99,,2013-10-22 10:23:00,
2013-10-22 05:43:00,33.0,33.0,-100.00,ESE,110,1.0,3.0,99,0.00,,,-99.99,,2013-10-22 10:43:00,
2013-10-22 06:12:00,33.0,33.0,-100.00,SE,145,1.0,3.0,99,0.21,,,-99.99,,2013-10-22 11:12:00,
2013-10-22 06:22:00,33.0,33.0,-100.00,ENE,70,1.0,4.0,99,0.17,,,-99.99,,2013-10-22 11:22:00,
2013-10-22 06:42:00,33.0,33.0,-100.00,ENE,75,2.0,4.0,99,0.18,,,-99.99,,2013-10-22 11:42:00,
2013-10-22 07:22:00,33.0,33.0,-100.00,ENE,70,4.0,7.0,99,0.07,,,-99.99,,2013-10-22 12:22:00,
2013-10-22 07:42:00,33.0,33.0,-100.00,ENE,65,4.0,6.0,99,0.07,,,-99.99,,2013-10-22 12:42:00,
2013-10-22 08:21:00,33.0,33.0,-100.00,ENE,70,5.0,7.0,99,0.10,,,-99.99,,2013-10-22 13:21:00,
2013-10-22 08:42:00,33.0,33.0,-100.00,ENE,60,4.0,9.0,99,0.17,,,-99.99,,2013-10-22 13:42:00,
2013-10-22 09:21:00,33.0,33.0,-100.00,ENE,60,5.0,9.0,99,0.14,,,-99.99,,2013-10-22 14:21:00,
2013-10-22 09:42:00,33.0,33.0,-100.00,ENE,65,6.0,10.0,99,0.13,,,-99.99,,2013-10-22 14:42:00,
2013-10-22 10:22:00,33.0,33.0,-100.00,NE,50,4.0,6.0,99,0.14,,,-99.99,,2013-10-22 15:22:00,
2013-10-22 10:43:00,33.0,33.0,-100.00,ENE,65,3.0,6.0,99,0.16,,,-99.99,,2013-10-22 15:43:00,
2013-10-22 11:23:00,34.0,34.0,-100.00,NE,50,3.0,6.0,99,0.25,,,-99.99,,2013-10-22 16:23:00,
2013-10-22 11:43:00,35.0,35.0,-100.00,NNE,25,4.0,6.0,99,0.20,,,-99.99,,2013-10-22 16:43:00,
2013-10-22 12:22:00,35.0,35.0,-100.00,NE,35,4.0,8.0,99,0.04,,,-99.99,,2013-10-22 17:22:00,
2013-10-22 12:43:00,35.0,35.0,-100.00,NE,40,3.0,6.0,99,0.31,,,-99.99,,2013-10-22 17:43:00,
2013-10-22 13:22:00,36.0,36.0,-100.00,NE,35,4.0,6.0,99,0.21,,,-99.99,,2013-10-22 18:22:00,
2013-10-22 13:42:00,36.0,36.0,-100.00,NNE,15,4.0,8.0,99,0.23,,,-99.99,,2013-10-22 18:42:00,
2013-10-22 14:22:00,37.0,37.0,-100.00,North,0,1.0,5.0,99,0.10,,,-99.99,,2013-10-22 19:22:00,
2013-10-22 14:42:00,37.0,37.0,-100.00,NNE,30,2.0,6.0,99,0.00,,,-99.99,,2013-10-22 19:42:00,
2013-10-22 15:22:00,37.0,37.0,-100.00,WNW,295,5.0,8.0,99,0.00,,,-99.99,,2013-10-22 20:22:00,
2013-10-22 15:42:00,38.0,38.0,-100.00,WNW,290,3.0,7.0,99,0.00,,,-99.99,,2013-10-22 20:42:00,
2013-10-22 16:23:00,38.0,37.0,-100.00,West,280,5.0,7.0,96,0.00,,,-99.99,,2013-10-22 21:23:00,
2013-10-22 17:24:00,40.0,38.0,-100.00,West,265,3.0,6.0,91,0.00,,,-99.99,,2013-10-22 22:24:00,
2013-10-22 17:44:00,40.0,38.0,-100.00,SW,235,3.0,6.0,92,0.00,,,-99.99,,2013-10-22 22:44:00,
2013-10-22 18:23:00,39.0,38.0,-100.00,NW,310,4.0,6.0,94,0.00,,,-99.99,,2013-10-22 23:23:00,
2013-10-22 18:43:00,40.0,35.0,-100.00,NNW,335,10.0,16.0,81,0.00,,,-99.99,,2013-10-22 23:43:00,
2013-10-22 19:22:00,39.0,32.0,-100.00,NNW,340,9.0,14.0,74,0.00,,,-99.99,,2013-10-23 00:22:00,
2013-10-22 19:42:00,38.0,31.0,-100.00,North,350,6.0,12.0,75,0.00,,,-99.99,,2013-10-23 00:42:00,
2013-10-22 20:23:00,36.0,31.0,-100.00,NNW,340,6.0,9.0,79,0.00,,,-99.99,,2013-10-23 01:23:00,
2013-10-22 20:42:00,36.0,30.0,-100.00,NW,325,3.0,6.0,80,0.00,,,-99.99,,2013-10-23 01:42:00,
2013-10-22 21:11:00,36.0,31.0,-100.00,NNW,345,2.0,6.0,81,0.00,,,-99.99,,2013-10-23 02:11:00,
2013-10-22 21:22:00,36.0,31.0,-100.00,WNW,295,4.0,6.0,82,0.00,,,-99.99,,2013-10-23 02:22:00,
2013-10-22 21:42:00,36.0,31.0,-100.00,North,5,2.0,6.0,83,0.00,,,-99.99,,2013-10-23 02:42:00,
2013-10-22 22:22:00,35.0,31.0,-100.00,NW,305,1.0,3.0,87,0.00,,,-99.99,,2013-10-23 03:22:00,
2013-10-22 22:44:00,35.0,32.0,-100.00,North,0,1.0,2.0,88,0.00,,,-99.99,,2013-10-23 03:44:00,
2013-10-22 23:24:00,36.0,33.0,-100.00,NW,325,1.0,3.0,88,0.00,,,-99.99,,2013-10-23 04:24:00,
2013-10-22 23:45:00,36.0,33.0,-100.00,NNW,345,1.0,2.0,87,0.00,,,-99.99,,2013-10-23 04:45:00,